| time (UTC) | temp F | wind direction | speed MPH | gust MPH | rain 1hr in | rain 24hr in | rain mn in | humidity % | barometer mb |
| 20260506033016 | 60 | 225 | 1.0 | 4.0 | 0.03 | 0.38 | 0.38 | 92 | 1006.6 |
| 20260506032017 | 60 | 248 | 1.0 | 5.0 | 0.04 | 0.38 | 0.38 | 92 | 1006.8 |
| 20260506031016 | 60 | 248 | 2.0 | 4.0 | 0.04 | 0.38 | 0.38 | 92 | 1007.1 |
| 20260506030016 | 61 | 248 | 3.0 | 8.0 | 0.04 | 0.38 | 0.38 | 92 | 1007.2 |
| 20260506025036 | 61 | 248 | 4.0 | 8.0 | 0.03 | 0.37 | 0.37 | 92 | 1007.3 |
| 20260506024036 | 61 | 248 | 4.0 | 8.0 | 0.02 | 0.36 | 0.36 | 92 | 1007.4 |
| 20260506023016 | 61 | 248 | 5.0 | 12.0 | 0.01 | 0.35 | 0.35 | 91 | 1007.5 |
| 20260506022016 | 62 | 248 | 5.0 | 12.0 | 0.00 | 0.34 | 0.34 | 92 | 1007.5 |
| 20260506021016 | 62 | 248 | 6.0 | 14.0 | 0.00 | 0.34 | 0.34 | 92 | 1007.5 |
| 20260506020016 | 62 | 248 | 4.0 | 9.0 | 0.00 | 0.34 | 0.34 | 92 | 1007.5 |
| 20260506015016 | 62 | 248 | 3.0 | 7.0 | 0.00 | 0.34 | 0.34 | 92 | 1007.4 |
| 20260506014017 | 62 | 248 | 4.0 | 10.0 | 0.00 | 0.34 | 0.34 | 91 | 1007.4 |
| 20260506013016 | 62 | 248 | 3.0 | 8.0 | 0.00 | 0.34 | 0.34 | 91 | 1007.1 |
| 20260506012016 | 62 | 180 | 1.0 | 5.0 | 0.00 | 0.34 | 0.34 | 91 | 1006.9 |
| 20260506011016 | 62 | 225 | 1.0 | 4.0 | 0.01 | 0.34 | 0.34 | 91 | 1007.0 |
| 20260506010016 | 62 | 248 | 1.0 | 5.0 | 0.01 | 0.34 | 0.34 | 91 | 1007.0 |
| 20260506005016 | 62 | 225 | 1.0 | 6.0 | 0.02 | 0.34 | 0.34 | 91 | 1006.7 |
| 20260506004016 | 62 | 0.0 | 0.0 | 0.03 | 0.34 | 0.34 | 90 | 1006.7 | |
| 20260506003016 | 63 | 0.0 | 0.0 | 0.08 | 0.34 | 0.34 | 90 | 1006.8 | |
| 20260506002016 | 63 | 0.0 | 2.0 | 0.10 | 0.34 | 0.34 | 90 | 1006.8 | |
| 20260506001016 | 63 | 203 | 1.0 | 4.0 | 0.11 | 0.33 | 0.33 | 90 | 1006.8 |
| 20260506000016 | 63 | 248 | 1.0 | 3.0 | 0.12 | 0.33 | 0.33 | 90 | 1006.8 |
| 20260505235016 | 63 | 248 | 1.0 | 3.0 | 0.12 | 0.32 | 0.32 | 91 | 1006.8 |
| 20260505234016 | 64 | 0.0 | 3.0 | 0.11 | 0.31 | 0.31 | 91 | 1006.9 | |
| 20260505233016 | 64 | 225 | 1.0 | 5.0 | 0.08 | 0.26 | 0.26 | 91 | 1006.9 |
| 20260505232016 | 64 | 0.0 | 0.0 | 0.08 | 0.24 | 0.25 | 90 | 1007.2 | |
| 20260505231036 | 64 | 0.0 | 0.0 | 0.07 | 0.22 | 0.22 | 90 | 1007.1 | |
| 20260505230036 | 64 | 0.0 | 0.0 | 0.11 | 0.21 | 0.21 | 90 | 1007.1 | |
| 20260505225016 | 64 | 0.0 | 0.0 | 0.11 | 0.20 | 0.20 | 90 | 1006.9 | |
| 20260505224016 | 64 | 0.0 | 0.0 | 0.11 | 0.20 | 0.20 | 90 | 1007.1 | |
| 20260505223016 | 64 | 0.0 | 0.0 | 0.09 | 0.18 | 0.18 | 90 | 1007.4 | |
| 20260505222016 | 65 | 0.0 | 2.0 | 0.07 | 0.16 | 0.16 | 90 | 1007.5 | |
| 20260505221016 | 65 | 0.0 | 2.0 | 0.06 | 0.15 | 0.15 | 90 | 1007.5 | |
| 20260505220016 | 65 | 0.0 | 2.0 | 0.01 | 0.10 | 0.10 | 90 | 1007.6 | |
| 20260505215016 | 65 | 0.0 | 0.0 | 0.00 | 0.09 | 0.09 | 90 | 1007.2 | |
| 20260505214016 | 65 | 0.0 | 1.0 | 0.00 | 0.09 | 0.09 | 90 | 1007.0 | |
| 20260505213036 | 64 | 68 | 1.0 | 3.0 | 0.00 | 0.09 | 0.09 | 89 | 1007.1 |
| 20260505212016 | 64 | 0.0 | 2.0 | 0.00 | 0.09 | 0.09 | 88 | 1007.3 | |
| 20260505211016 | 64 | 0.0 | 2.0 | 0.00 | 0.09 | 0.09 | 88 | 1007.5 | |
| 20260505210036 | 64 | 0.0 | 1.0 | 0.00 | 0.09 | 0.09 | 88 | 1007.7 | |
| 20260505205016 | 64 | 0.0 | 0.0 | 0.00 | 0.09 | 0.09 | 88 | 1007.8 | |
| 20260505204016 | 64 | 0.0 | 0.0 | 0.00 | 0.09 | 0.09 | 88 | 1007.9 | |
| 20260505203016 | 64 | 0.0 | 0.0 | 0.00 | 0.09 | 0.09 | 87 | 1008.1 | |
| 20260505202016 | 64 | 0.0 | 0.0 | 0.00 | 0.09 | 0.09 | 87 | 1008.3 | |
| 20260505201016 | 64 | 0.0 | 0.0 | 0.01 | 0.09 | 0.09 | 86 | 1008.4 | |
| 20260505200016 | 64 | 0.0 | 0.0 | 0.02 | 0.09 | 0.09 | 85 | 1008.5 | |
| 20260505195016 | 64 | 0.0 | 0.0 | 0.05 | 0.09 | 0.09 | 85 | 1008.7 | |
| 20260505194016 | 64 | 0.0 | 0.0 | 0.06 | 0.09 | 0.09 | 84 | 1008.8 | |
| 20260505193016 | 65 | 0.0 | 3.0 | 0.08 | 0.09 | 0.09 | 84 | 1008.8 | |
| 20260505192016 | 65 | 248 | 1.0 | 3.0 | 0.08 | 0.09 | 0.09 | 84 | 1008.9 |
| 20260505191016 | 65 | 248 | 1.0 | 3.0 | 0.08 | 0.08 | 0.08 | 83 | 1008.9 |
| 20260505190036 | 65 | 248 | 1.0 | 4.0 | 0.07 | 0.07 | 0.07 | 82 | 1009.3 |
| 20260505185016 | 66 | 248 | 2.0 | 4.0 | 0.04 | 0.04 | 0.04 | 81 | 1009.1 |
| 20260505184016 | 66 | 248 | 3.0 | 8.0 | 0.03 | 0.03 | 0.03 | 80 | 1009.3 |
| 20260505183016 | 66 | 248 | 2.0 | 6.0 | 0.01 | 0.01 | 0.01 | 78 | 1009.3 |
| 20260505182016 | 67 | 248 | 3.0 | 7.0 | 0.01 | 0.01 | 0.01 | 75 | 1009.5 |
| 20260505181016 | 67 | 248 | 4.0 | 7.0 | 0.00 | 0.00 | 0.00 | 73 | 1009.7 |
| 20260505180016 | 68 | 248 | 3.0 | 8.0 | 0.00 | 0.00 | 0.00 | 72 | 1009.5 |
| 20260505175016 | 68 | 248 | 4.0 | 9.0 | 0.00 | 0.00 | 0.00 | 71 | 1009.6 |
| 20260505174016 | 69 | 248 | 4.0 | 9.0 | 0.00 | 0.00 | 0.00 | 71 | 1009.7 |
| 20260505173016 | 69 | 248 | 5.0 | 10.0 | 0.00 | 0.00 | 0.00 | 69 | 1009.6 |
| 20260505172016 | 70 | 248 | 5.0 | 10.0 | 0.00 | 0.00 | 0.00 | 67 | 1009.4 |
| 20260505171016 | 70 | 248 | 6.0 | 12.0 | 0.00 | 0.00 | 0.00 | 67 | 1009.6 |
| 20260505170016 | 70 | 248 | 5.0 | 13.0 | 0.00 | 0.00 | 0.00 | 67 | 1009.5 |
| 20260505165036 | 69 | 248 | 5.0 | 11.0 | 0.00 | 0.00 | 0.00 | 68 | 1009.7 |
| 20260505164016 | 69 | 248 | 5.0 | 12.0 | 0.00 | 0.00 | 0.00 | 68 | 1009.7 |
| 20260505163016 | 69 | 248 | 5.0 | 11.0 | 0.00 | 0.00 | 0.00 | 67 | 1010.0 |
| 20260505162016 | 69 | 248 | 6.0 | 15.0 | 0.00 | 0.00 | 0.00 | 66 | 1010.0 |
| 20260505161016 | 69 | 248 | 5.0 | 10.0 | 0.00 | 0.00 | 0.00 | 67 | 1010.1 |
| 20260505153016 | 67 | 248 | 3.0 | 9.0 | 0.00 | 0.00 | 0.00 | 68 | 1010.1 |
| 20260505152016 | 67 | 248 | 4.0 | 11.0 | 0.00 | 0.00 | 0.00 | 68 | 1010.1 |
| 20260505151016 | 66 | 248 | 4.0 | 9.0 | 0.00 | 0.00 | 0.00 | 68 | 1010.0 |
| 20260505125016 | 63 | 0.0 | 0.0 | 0.00 | 0.00 | 0.00 | 75 | 1010.3 | |
| 20260505124016 | 63 | 0.0 | 1.0 | 0.00 | 0.00 | 0.00 | 74 | 1010.3 | |
| 20260505123016 | 63 | 0.0 | 2.0 | 0.00 | 0.00 | 0.00 | 74 | 1010.4 | |
| 20260505122016 | 63 | 45 | 1.0 | 3.0 | 0.00 | 0.00 | 0.00 | 73 | 1010.7 |
| 20260505121016 | 63 | 45 | 2.0 | 6.0 | 0.00 | 0.00 | 0.00 | 73 | 1010.8 |
| 20260505120016 | 63 | 68 | 1.0 | 3.0 | 0.00 | 0.02 | 0.00 | 73 | 1010.6 |
| 20260505115016 | 63 | 45 | 2.0 | 4.0 | 0.00 | 0.04 | 0.00 | 72 | 1010.5 |
| 20260505114016 | 63 | 45 | 2.0 | 5.0 | 0.00 | 0.05 | 0.00 | 71 | 1010.2 |
| 20260505113016 | 63 | 68 | 2.0 | 5.0 | 0.00 | 0.06 | 0.00 | 70 | 1010.2 |
| 20260505112016 | 63 | 45 | 1.0 | 4.0 | 0.00 | 0.07 | 0.00 | 68 | 1010.2 |
| 20260505111016 | 64 | 0.0 | 2.0 | 0.00 | 0.07 | 0.00 | 67 | 1010.1 | |
| 20260505102016 | 64 | 0.0 | 2.0 | 0.00 | 0.07 | 0.00 | 63 | 1010.5 | |
| 20260505101016 | 64 | 338 | 2.0 | 5.0 | 0.00 | 0.07 | 0.00 | 63 | 1010.5 |
| 20260505100016 | 64 | 248 | 1.0 | 4.0 | 0.00 | 0.07 | 0.00 | 63 | 1010.4 |
| 20260505095056 | 64 | 248 | 2.0 | 5.0 | 0.00 | 0.07 | 0.00 | 63 | 1009.7 |
| 20260505094016 | 65 | 225 | 2.0 | 5.0 | 0.00 | 0.07 | 0.00 | 62 | 1009.4 |
| 20260505093036 | 65 | 248 | 2.0 | 6.0 | 0.00 | 0.07 | 0.00 | 61 | 1009.0 |
| 20260505092016 | 65 | 248 | 4.0 | 9.0 | 0.00 | 0.07 | 0.00 | 61 | 1009.0 |
| 20260505091036 | 65 | 248 | 4.0 | 9.0 | 0.00 | 0.07 | 0.00 | 61 | 1009.0 |
| 20260505090016 | 65 | 225 | 5.0 | 12.0 | 0.00 | 0.07 | 0.00 | 60 | 1008.6 |
| 20260505085016 | 65 | 248 | 5.0 | 12.0 | 0.00 | 0.07 | 0.00 | 60 | 1008.6 |
| 20260505084016 | 66 | 248 | 5.0 | 14.0 | 0.00 | 0.07 | 0.00 | 60 | 1008.6 |
| 20260505083016 | 66 | 248 | 5.0 | 13.0 | 0.00 | 0.07 | 0.00 | 59 | 1008.6 |
| 20260505082016 | 66 | 248 | 6.0 | 11.0 | 0.00 | 0.07 | 0.00 | 59 | 1008.5 |
| 20260505081016 | 66 | 248 | 6.0 | 13.0 | 0.00 | 0.07 | 0.00 | 59 | 1008.5 |
| 20260505080016 | 66 | 248 | 5.0 | 13.0 | 0.00 | 0.07 | 0.00 | 59 | 1008.4 |
| 20260505075016 | 66 | 248 | 5.0 | 12.0 | 0.00 | 0.07 | 0.00 | 59 | 1008.6 |
| 20260505074036 | 66 | 248 | 5.0 | 11.0 | 0.00 | 0.07 | 0.00 | 59 | 1008.5 |
| 20260505073016 | 66 | 248 | 5.0 | 10.0 | 0.00 | 0.07 | 0.00 | 59 | 1008.5 |
| 20260505072016 | 66 | 248 | 5.0 | 10.0 | 0.00 | 0.07 | 0.00 | 59 | 1008.3 |
| 20260505071016 | 67 | 248 | 5.0 | 11.0 | 0.00 | 0.07 | 0.00 | 58 | 1008.4 |
| 20260505070016 | 67 | 248 | 6.0 | 12.0 | 0.00 | 0.07 | 0.00 | 58 | 1008.3 |
| 20260505065016 | 67 | 248 | 5.0 | 13.0 | 0.00 | 0.07 | 0.00 | 58 | 1007.9 |
| 20260505064016 | 67 | 248 | 7.0 | 13.0 | 0.00 | 0.07 | 0.00 | 58 | 1008.0 |
| 20260505063016 | 67 | 248 | 6.0 | 15.0 | 0.00 | 0.07 | 0.00 | 58 | 1008.1 |
| 20260505062016 | 67 | 248 | 5.0 | 11.0 | 0.00 | 0.07 | 0.00 | 59 | 1008.1 |
| 20260505061036 | 66 | 248 | 5.0 | 10.0 | 0.00 | 0.07 | 0.00 | 59 | 1008.0 |
| 20260505060016 | 66 | 248 | 4.0 | 13.0 | 0.00 | 0.07 | 0.00 | 59 | 1007.8 |
| 20260505055016 | 66 | 248 | 5.0 | 14.0 | 0.00 | 0.07 | 0.00 | 60 | 1007.8 |
| 20260505054016 | 66 | 248 | 5.0 | 13.0 | 0.00 | 0.07 | 0.00 | 60 | 1007.8 |
| 20260505053016 | 66 | 248 | 4.0 | 10.0 | 0.00 | 0.07 | 0.00 | 60 | 1007.9 |
| 20260505052016 | 66 | 248 | 4.0 | 7.0 | 0.00 | 0.07 | 0.00 | 60 | 1007.9 |
| 20260505051016 | 66 | 248 | 3.0 | 8.0 | 0.00 | 0.07 | 0.00 | 60 | 1007.9 |
| 20260505041016 | 67 | 248 | 2.0 | 6.0 | 0.00 | 0.07 | 0.00 | 58 | 1008.2 |
| 20260505040016 | 67 | 225 | 3.0 | 7.0 | 0.00 | 0.07 | 0.00 | 57 | 1008.4 |
| 20260505035016 | 67 | 225 | 2.0 | 6.0 | 0.00 | 0.07 | 0.07 | 58 | 1008.4 |
| 20260505034016 | 67 | 225 | 2.0 | 6.0 | 0.00 | 0.07 | 0.07 | 58 | 1008.3 |